This is the latest recevied weather packets stored in our database for station/object K5GTX. If no packets are shown the sender has not sent any weather packets the latest 10 day(s).
| Time | Temp. | Humidity | Pressure | Rain* | Wind** | Luminosity | Snow |
|---|---|---|---|---|---|---|---|
| 1777948687 | 23.89° C | 99% | 1012.4 hPa | 0 mm | - | 0 W/m² | - |
| 1777948384 | 23.89° C | 99% | 1012.6 hPa | 0 mm | - | 0 W/m² | - |
| 1777948081 | 23.89° C | 99% | 1012.3 hPa | 0 mm | - | 0 W/m² | - |
| 1777947778 | 23.89° C | 99% | 1012.4 hPa | 0 mm | - | 0 W/m² | - |
| 1777947475 | 23.89° C | 99% | 1012.4 hPa | 0 mm | - | 0 W/m² | - |
| 1777947172 | 23.89° C | 99% | 1012.2 hPa | 0 mm | - | 0 W/m² | - |
| 1777946868 | 23.89° C | 99% | 1012.1 hPa | 0 mm | - | 0 W/m² | - |
| 1777946563 | 23.89° C | 99% | 1012.2 hPa | 0 mm | - | 0 W/m² | - |
| 1777946260 | 24.44° C | 99% | 1012.2 hPa | 0 mm | - | 0 W/m² | - |
| 1777945957 | 23.89° C | 99% | 1012.3 hPa | 0 mm | - | 0 W/m² | - |
| 1777945655 | 24.44° C | 99% | 1012.5 hPa | 0 mm | - | 0 W/m² | - |
| 1777945352 | 24.44° C | 99% | 1012.5 hPa | 0 mm | - | 0 W/m² | - |
| 1777945048 | 24.44° C | 99% | 1012.3 hPa | 0 mm | - | 0 W/m² | - |
| 1777944745 | 24.44° C | 99% | 1012.3 hPa | 0 mm | - | 0 W/m² | - |
| 1777944444 | 24.44° C | 99% | 1012.3 hPa | 0 mm | - | 0 W/m² | - |
| 1777944141 | 24.44° C | 99% | 1012.2 hPa | 0 mm | - | 0 W/m² | - |
| 1777943836 | 25° C | 99% | 1012.2 hPa | 0 mm | - | 0 W/m² | - |
| 1777943534 | 25° C | 99% | 1012.3 hPa | 0 mm | - | 0 W/m² | - |
| 1777943229 | 25° C | 99% | 1012.3 hPa | 0 mm | - | 0 W/m² | - |
| 1777942926 | 25° C | 99% | 1012.2 hPa | 0 mm | - | 1 W/m² | - |
| 1777942622 | 25° C | 99% | 1012 hPa | 0 mm | - | 2 W/m² | - |
| 1777942319 | 25° C | 99% | 1012.1 hPa | 0 mm | - | 7 W/m² | - |
| 1777942016 | 25° C | 99% | 1012.2 hPa | 0 mm | - | 10 W/m² | - |
| 1777941713 | 25° C | 99% | 1012 hPa | 0 mm | - | 16 W/m² | - |
| 1777941410 | 25° C | 99% | 1012.4 hPa | 0 mm | - | 23 W/m² | - |
* Rain latest hour (hover to see other rain measurements)
** Current wind speed in m/s (hover to see current wind gust speed)